EHI
54 57 61 65 64 60 57 58 58 48 35 28 24 18 11 6 3 2 2 3 4 2 1 0 0 0 0 0 0 0 0 0 0 0 0 0 0 0 0 0 0 0 0
58 60 62 63 61 58 56 55 54 47 35 26 22 18 12 7 4 2 1 1 2 1 0 0 0 0 0 0 0 0 0 0 0 0 0 0 0 0 0 0 0 0 0
58 60 61 61 58 56 53 51 49 44 35 26 22 20 15 11 7 4 1 0 0 0 0 0 0 0 0 0 0 0 0 0 0 0 0 0 0 0 0 0 0 0 0
57 57 57 57 55 52 50 48 44 41 36 29 25 23 20 15 10 7 3 1 0 0 1 1 0 0 0 0 0 0 0 0 0 0 0 0 0 0 0 0 0 0 0
55 54 53 52 50 47 46 43 41 39 37 33 29 25 21 16 11 8 5 2 1 0 1 1 0 0 0 0 0 0 0 0 0 0 0 0 0 0 0 0 0 0 0
53 53 51 50 48 44 40 39 39 40 38 35 29 23 19 15 12 9 6 3 2 1 1 1 0 0 0 0 0 0 0 0 0 0 0 0 0 0 0 0 0 0 0
53 52 50 49 46 42 38 36 37 39 39 36 29 21 15 13 11 8 5 4 2 1 1 1 1 0 0 0 0 0 0 0 0 0 0 0 0 0 0 0 0 0 0
52 51 48 45 43 39 37 35 35 37 37 34 28 20 13 11 9 6 4 3 1 1 2 2 1 0 0 0 0 0 0 0 0 0 0 0 0 0 0 0 0 0 0
46 45 41 39 37 35 34 34 33 33 33 32 28 22 15 11 7 4 3 2 0 0 1 2 1 0 0 0 0 0 0 0 0 0 0 0 0 0 0 0 0 0 0
36 35 34 32 31 32 32 32 31 30 29 29 28 24 17 12 8 5 3 2 0 0 1 1 1 0 0 0 0 0 0 0 0 0 0 0 0 0 0 0 0 0 0
29 30 30 29 29 30 30 30 29 26 24 24 25 23 17 12 9 7 4 2 0 0 0 1 1 1 0 1 1 0 0 0 0 0 0 0 0 0 0 0 0 0 0
28 29 30 28 28 27 27 26 24 21 19 19 20 18 14 11 9 8 6 3 1 0 0 1 2 1 0 1 1 0 0 0 0 0 0 0 0 0 0 0 0 0 0
24 25 27 27 26 25 22 20 18 16 15 15 15 13 11 9 8 7 5 3 1 0 0 1 2 1 0 1 1 0 0 0 0 0 0 0 0 0 0 0 0 0 0
16 17 20 23 23 21 18 16 14 11 11 12 10 9 8 8 7 5 4 2 1 0 0 1 1 1 0 0 0 0 0 0 0 0 0 0 0 0 0 0 0 0 0
12 11 12 16 19 17 14 13 12 9 8 8 8 7 7 7 6 4 3 1 0 0 0 0 0 1 0 0 0 0 0 0 0 0 0 0 0 0 0 0 0 0 0
10 9 9 12 16 14 11 10 10 9 7 7 7 7 6 6 6 4 2 1 0 0 0 1 1 1 0 0 0 0 0 0 0 0 0 0 0 0 0 0 0 0 0
9 8 9 12 14 13 9 8 8 9 8 6 6 7 7 7 6 4 2 1 1 1 1 2 2 1 0 0 0 0 0 0 0 0 0 0 0 0 0 0 0 0 0
10 9 9 12 14 13 11 9 8 7 6 5 5 6 7 7 6 4 2 1 1 1 2 3 3 2 1 0 0 0 0 0 0 0 0 0 0 0 0 0 0 0 0
12 11 11 14 16 15 13 11 7 6 5 4 4 6 7 7 7 6 3 2 3 3 4 3 3 2 1 0 0 0 0 0 0 0 0 0 0 0 0 0 0 0 0
11 13 14 17 18 15 13 11 8 7 5 4 4 6 8 9 9 7 5 4 4 5 5 4 3 2 1 0 0 0 0 0 0 0 0 0 0 0 0 0 0 0 0
13 14 16 18 18 15 12 11 9 7 6 5 5 6 8 10 10 8 7 6 7 7 6 5 3 1 0 0 0 0 0 0 0 0 0 0 0 0 0 0 0 0 0
14 14 14 15 16 16 14 11 9 7 7 5 4 4 6 8 9 9 9 9 9 8 8 6 4 2 1 0 0 0 0 0 0 0 0 0 0 0 0 0 0 0 0
12 12 11 11 14 16 16 14 11 9 8 6 4 4 4 7 9 9 10 10 10 9 8 7 5 4 2 1 0 0 0 0 0 0 0 0 0 0 0 0 0 0 0
9 9 9 9 10 14 17 16 14 13 10 7 6 6 6 6 7 8 8 8 8 8 6 5 4 4 3 1 0 0 0 0 0 0 0 0 0 0 0 0 0 0 0
8 8 8 6 7 11 15 16 16 15 13 10 8 7 6 5 4 4 4 4 4 4 3 3 2 2 2 1 0 0 0 0 0 0 0 0 0 0 0 0 0 0 0
7 7 6 5 4 7 12 14 15 16 14 11 9 7 6 4 2 1 1 1 1 1 1 1 1 1 1 0 0 0 0 0 0 0 0 0 0 0 0 0 0 0 0
Wind_Speed
10 11 12 13 13 12 12 12 12 11 9 7 6 6 6 5 4 4 6 6 6 5 5 4 3 3 3 3 3 2 2 1 1 3 2 3 1 1 2 2 3 4 4
10 11 12 12 13 14 14 13 13 12 10 7 6 5 5 4 4 4 4 5 6 5 5 5 4 4 3 3 3 3 2 1 2 3 3 2 3 2 0 1 3 4 3
17 15 14 13 13 13 15 13 13 12 11 9 6 5 4 3 3 4 4 4 5 5 5 5 4 4 4 3 3 3 4 2 0 2 4 4 3 1 2 1 2 3 3
14 14 14 14 14 14 13 12 12 11 10 10 9 10 8 6 5 5 4 4 5 5 5 5 5 4 4 4 3 3 3 3 2 0 1 2 4 3 0 2 1 2 3
16 16 16 15 14 12 11 11 11 10 10 10 10 10 7 5 4 5 6 5 4 5 5 5 5 4 4 4 3 3 3 3 3 2 1 1 1 2 3 1 1 1 1
16 15 13 11 10 10 11 11 11 11 10 11 10 10 10 8 8 7 7 5 3 3 5 6 5 5 4 4 4 4 4 3 3 2 2 2 2 2 3 2 2 2 2
15 14 13 12 12 12 12 11 12 11 11 11 10 10 10 10 11 9 8 7 4 4 5 6 5 4 4 4 4 4 3 3 3 2 2 2 2 2 3 3 2 1 1
13 14 14 13 13 14 13 13 13 12 12 12 11 10 10 8 7 8 7 7 6 5 6 6 6 6 5 5 4 3 3 3 3 3 2 2 1 2 3 4 4 2 1
13 13 13 13 13 14 14 14 14 12 12 12 11 10 9 8 8 8 7 6 5 5 7 7 6 6 5 5 5 3 3 3 3 3 2 2 1 1 1 2 4 5 3
12 12 12 12 12 12 12 12 13 13 12 12 11 10 9 9 8 7 8 7 7 7 8 7 6 6 5 5 5 3 3 4 3 2 3 2 1 2 2 2 2 3 4
11 11 11 11 11 10 10 11 11 11 10 11 10 10 9 9 9 8 8 8 7 8 8 8 7 7 6 6 5 4 4 4 3 2 3 2 2 2 1 2 2 2 3
9 9 9 9 9 10 10 11 11 11 11 11 10 10 9 9 9 9 9 8 8 8 9 8 7 7 7 6 6 6 5 5 4 3 3 3 2 2 1 1 1 1 2
7 8 9 10 10 10 10 10 11 11 10 10 10 9 9 9 10 9 9 9 9 9 8 8 9 8 7 7 6 6 5 5 5 5 5 4 4 3 2 2 1 1 1
9 8 9 10 10 10 10 10 10 10 10 9 10 10 10 10 10 9 9 9 10 10 10 9 9 8 8 7 7 6 5 5 5 5 5 5 5 5 4 3 3 2 1
8 9 9 9 9 10 10 10 10 10 10 9 10 10 10 9 9 9 9 9 10 11 9 9 8 8 7 8 8 7 6 5 5 5 5 6 7 8 6 4 4 3 2
8 9 9 9 10 10 10 10 10 10 10 10 10 9 9 9 10 10 10 10 9 9 8 9 9 9 8 10 12 9 6 6 6 5 5 5 6 8 9 9 9 8 5
7 8 9 9 10 10 10 11 10 9 10 10 10 9 10 10 10 11 10 10 10 8 8 9 9 9 9 12 13 13 8 7 7 7 5 5 5 6 5 7 8 8 9
5 6 6 7 7 8 8 9 9 10 10 10 10 10 10 10 10 9 10 9 8 8 8 8 9 8 9 12 13 13 8 6 7 7 7 7 5 5 6 5 5 6 6
3 4 5 6 6 7 8 9 10 10 10 10 10 11 11 10 10 10 10 8 7 7 7 8 9 8 8 12 13 11 5 5 6 6 7 7 7 8 9 6 6 6 6
1 2 2 3 5 6 7 9 10 10 10 11 10 10 11 11 11 10 9 6 7 7 7 7 8 8 7 10 13 12 5 5 5 4 5 8 8 8 9 6 6 7 6
2 1 2 2 4 6 8 9 9 10 10 8 8 9 10 10 10 8 7 7 7 7 7 7 6 6 7 9 12 12 6 6 5 4 4 4 8 9 9 8 6 8 6
4 3 2 1 2 4 7 8 8 8 8 8 8 8 8 8 8 7 7 7 7 7 6 5 5 4 4 6 9 12 11 8 6 5 4 5 8 9 9 7 7 8 5
4 4 3 2 1 2 4 6 6 6 7 8 7 7 7 6 6 7 7 6 6 5 5 5 5 3 3 4 7 10 11 10 6 4 5 5 6 6 6 8 8 5 3
4 4 4 3 2 1 2 3 4 6 8 8 7 6 6 6 5 4 4 5 5 5 5 5 4 3 2 2 3 3 5 6 5 3 2 3 4 3 2 3 3 3 3
4 4 3 3 2 1 1 2 4 6 7 6 6 6 6 6 6 5 3 3 3 4 6 5 4 4 4 3 5 5 4 4 4 3 1 1 1 1 1 1 1 1 1
4 4 4 4 3 2 2 2 3 6 7 6 5 5 5 5 6 6 5 7 5 5 5 5 5 3 4 4 6 5 5 5 6 4 2 2 2 2 2 2 1 1 2
Wind_Direction
177 169 165 165 163 164 165 168 166 168 164 161 154 151 156 160 157 160 158 157 155 150 145 141 138 140 141 152 143 123 111 103 109 82 50 13 19 160 179 174 166 180 185
166 167 165 167 169 169 171 170 170 170 171 169 160 154 150 157 159 155 155 160 155 152 153 144 148 145 135 134 133 122 119 107 123 123 104 45 355 338 207 178 177 184 180
171 170 169 168 169 173 175 175 175 172 170 160 142 135 120 120 135 154 163 168 159 153 145 150 146 148 148 152 151 140 134 137 110 140 141 147 198 276 329 262 189 179 177
170 169 170 171 175 178 177 172 172 172 168 161 160 160 162 165 173 168 166 168 165 156 150 151 148 151 153 154 159 144 140 135 142 168 143 156 155 149 190 320 291 204 184
171 173 176 177 176 174 173 172 168 170 167 167 168 167 165 163 151 153 161 168 170 164 158 156 151 151 153 156 148 133 132 139 148 158 147 106 98 119 139 204 280 307 246
172 173 174 168 167 168 169 170 170 172 171 170 172 173 168 164 160 164 170 173 171 171 168 161 157 156 156 158 152 143 139 136 134 136 140 148 150 170 150 168 206 233 271
171 169 168 169 170 173 175 174 174 175 176 174 178 179 174 173 174 172 175 173 172 176 181 167 162 161 162 161 150 142 143 143 133 138 140 148 167 164 149 140 160 196 291
172 173 174 175 175 177 178 179 179 180 179 180 182 179 175 175 178 176 175 180 181 181 176 168 166 165 161 159 149 142 150 142 137 137 134 131 144 148 152 154 145 125 338
171 175 176 178 180 180 182 183 182 182 183 183 180 178 178 178 178 177 174 177 177 177 173 169 167 167 162 157 150 150 158 146 142 141 135 131 125 115 130 145 148 146 162
168 172 176 179 183 184 184 182 183 185 184 182 184 183 182 182 179 175 179 178 178 174 169 169 168 167 164 158 153 148 156 150 152 147 134 128 129 100 97 121 134 141 148
170 174 175 176 177 177 180 183 186 185 185 185 185 183 184 183 180 182 183 179 176 171 171 172 171 170 169 163 157 162 163 164 167 157 150 160 149 121 106 100 112 127 136
165 168 169 169 172 176 179 184 187 187 188 186 184 186 185 183 183 186 186 178 176 175 174 172 171 174 173 170 169 175 172 173 179 180 163 179 161 146 134 119 116 135 151
157 163 168 175 180 182 182 186 189 190 188 183 183 185 185 185 187 187 183 179 175 175 174 172 175 177 175 175 178 178 179 184 189 187 182 189 169 175 169 158 161 174 151
165 172 176 180 184 185 183 186 190 189 185 183 184 188 191 191 189 185 181 178 175 175 177 178 177 177 176 179 182 181 183 189 197 197 194 192 187 190 187 184 191 182 158
172 178 186 185 185 186 186 186 188 186 182 181 187 193 193 188 185 183 182 177 176 179 176 174 176 177 179 188 186 187 188 188 195 203 202 202 200 198 194 190 190 178 175
184 188 191 188 189 191 190 187 186 185 179 182 188 188 186 184 184 184 181 177 178 176 173 178 180 185 195 196 193 189 189 190 193 204 211 214 208 208 208 206 197 186 183
188 193 195 193 192 192 187 186 186 180 181 185 186 182 183 185 184 183 180 179 179 176 177 183 184 191 200 196 197 197 189 194 199 203 207 218 217 207 207 216 216 216 214
192 197 193 193 191 188 184 180 177 179 183 187 188 185 183 184 180 178 181 182 177 179 183 187 190 193 205 202 201 200 196 196 201 201 200 207 217 211 203 212 223 232 232
198 201 191 189 182 182 181 173 177 180 183 187 188 186 182 181 180 182 185 182 176 180 185 185 189 195 207 203 201 193 188 201 212 213 209 207 212 220 211 205 222 241 252
168 188 171 167 176 184 174 172 180 182 189 190 187 184 181 181 184 185 182 176 176 183 182 186 191 194 201 201 200 191 185 202 216 224 222 218 216 219 211 206 213 232 245
28 64 124 151 179 182 173 175 180 190 190 180 176 178 180 183 182 178 173 169 173 175 181 185 190 193 197 197 199 193 191 200 209 219 224 224 219 221 220 213 214 229 231
33 45 78 146 166 166 171 175 186 187 171 165 166 173 176 180 177 171 172 171 172 176 181 182 184 194 195 196 203 200 203 202 204 216 219 221 220 222 226 221 228 232 228
44 36 45 61 109 140 158 169 181 166 160 157 161 162 164 166 162 166 168 163 167 173 179 178 185 189 187 200 205 202 207 209 208 214 212 213 217 224 233 234 233 228 214
40 34 40 56 65 101 146 162 156 153 151 156 160 155 151 152 147 151 159 163 170 175 177 177 181 181 179 187 187 194 202 209 215 226 214 211 211 214 227 238 230 211 204
34 37 42 46 51 73 83 118 137 142 145 149 150 144 139 138 128 120 118 146 153 179 174 174 169 170 183 207 184 175 188 193 198 178 158 159 164 196 224 229 228 212 207
41 40 37 39 40 63 64 78 133 143 145 146 146 144 137 132 131 127 105 70 86 103 127 137 142 139 154 156 155 164 174 176 163 146 153 189 197 203 214 214 224 223 232